FW5837 Weather Reports


time (UTC)temp
F
wind
direction
speed
knots
gust
knots
rain 1hr
in
rain 24hr
in
rain mn
in
humidity
%
barometer
mb
20260507012528 44 280 2.6 8.7 0.02 0.69 0.69 95 1006.7
20260507012029 44 282 2.6 8.7 0.01 0.68 0.68 95 1006.8
20260507011547 44 256 2.6 7.8 0.01 0.68 0.68 95 1006.9
20260507011028 44 263 2.6 7.0 0.01 0.68 0.68 95 1006.7
20260507010533 45 257 3.5 7.0 0.01 0.68 0.68 95 1006.7
20260507010050 45 299 2.6 8.7 0.01 0.68 0.68 95 1006.6
20260507005530 45 265 2.6 10.4 0.01 0.69 0.68 95 1006.6
20260507005029 45 298 4.3 10.4 0.01 0.69 0.68 95 1006.6
20260507004544 46 251 2.6 13.0 0.01 0.69 0.68 95 1006.5
20260507004030 46 224 3.5 13.0 0.01 0.69 0.68 95 1006.3
20260507003530 46 232 4.3 13.0 0.00 0.68 0.67 95 1006.1
20260507003042 46 257 4.3 13.0 0.00 0.68 0.67 96 1006.2
20260507002529 47 265 6.1 15.6 0.00 0.68 0.67 96 1005.9
20260507002029 47 270 7.0 15.6 0.00 0.68 0.67 96 1005.8
20260507001609 48 252 7.0 15.6 0.00 0.68 0.67 96 1005.7
20260507001028 48 248 6.1 13.0 0.00 0.68 0.67 96 1005.9
20260507000529 48 229 6.1 13.0 0.00 0.68 0.67 96 1005.9
20260507000047 49 238 5.2 13.0 0.00 0.68 0.67 96 1005.6
20260506235531 49 234 4.3 8.7 0.00 0.68 0.67 96 1005.6
20260506235029 49 267 4.3 8.7 0.00 0.68 0.67 96 1005.5
20260506234556 49 265 4.3 8.7 0.00 0.68 0.67 96 1005.6
20260506234029 49 228 4.3 13.9 0.00 0.68 0.67 96 1005.5
20260506233529 50 254 6.1 13.9 0.01 0.68 0.67 95 1005.5
20260506233045 51 260 5.2 10.4 0.03 0.68 0.67 95 1005.5
20260506232530 51 198 4.3 10.4 0.04 0.68 0.67 96 1005.5
20260506232032 52 276 4.3 9.6 0.04 0.68 0.67 96 1005.4
20260506231543 53 244 4.3 16.5 0.04 0.68 0.67 96 1005.2
20260506231029 53 262 6.1 16.5 0.04 0.68 0.67 96 1005.1
20260506230528 53 269 5.2 14.8 0.04 0.68 0.67 96 1005.0
20260506230041 53 247 6.1 14.8 0.04 0.68 0.67 96 1004.9
20260506225531 54 234 4.3 8.7 0.04 0.69 0.67 96 1004.8
20260506225029 54 225 2.6 7.0 0.04 0.69 0.67 96 1004.8
20260506224547 54 256 2.6 7.0 0.04 0.69 0.67 96 1004.9
20260506224028 54 240 1.7 6.1 0.04 0.69 0.67 96 1004.7
20260506223528 54 241 2.6 9.6 0.03 0.68 0.66 96 1004.8
20260506223044 54 250 3.5 9.6 0.01 0.66 0.64 96 1004.8
20260506222529 54 209 5.2 9.6 0.01 0.65 0.63 96 1004.7
20260506222029 55 216 3.5 9.6 0.01 0.65 0.63 96 1004.7
20260506221546 55 247 5.2 9.6 0.02 0.65 0.63 96 1004.7
20260506221028 55 234 3.5 18.2 0.02 0.65 0.63 95 1004.7
20260506220528 55 195 3.5 18.2 0.03 0.65 0.63 96 1004.8
20260506215528 55 196 6.1 14.8 0.05 0.65 0.63 96 1004.7
20260506215028 54 200 6.1 13.0 0.07 0.65 0.63 96 1004.6
20260506214543 54 229 4.3 11.3 0.08 0.65 0.63 96 1004.7
20260506214030 54 224 4.3 11.3 0.08 0.65 0.63 96 1004.7
20260506213528 54 204 3.5 15.6 0.10 0.65 0.63 96 1004.6
20260506213040 54 205 3.5 15.6 0.11 0.65 0.63 96 1004.6
20260506212529 54 227 5.2 15.6 0.10 0.64 0.62 96 1004.6
20260506212030 54 255 5.2 11.3 0.11 0.64 0.62 96 1004.5
20260506211550 54 191 4.3 12.2 0.10 0.63 0.61 96 1004.5
20260506211029 54 184 5.2 12.2 0.11 0.63 0.61 96 1004.7
20260506210530 54 209 4.3 12.2 0.10 0.62 0.60 96 1004.8
20260506210044 55 236 2.6 7.0 0.10 0.61 0.58 96 1004.8
20260506205533 55 254 3.5 7.8 0.08 0.58 0.57 96 1004.7
20260506205033 55 228 2.6 12.2 0.07 0.58 0.56 96 1004.8
20260506204544 55 236 3.5 14.8 0.07 0.57 0.55 96 1004.8
20260506204036 55 188 5.2 14.8 0.06 0.56 0.54 96 1004.8
20260506203533 55 335 6.1 14.8 0.05 0.55 0.52 96 1004.9
20260506203043 55 183 4.3 10.4 0.04 0.54 0.52 96 1004.9
20260506202533 55 240 3.5 13.0 0.04 0.54 0.52 96 1004.9
20260506202032 55 340 6.1 13.0 0.04 0.52 0.51 96 1004.8
20260506201543 55 201 4.3 14.8 0.04 0.52 0.51 96 1005.0
20260506201033 55 169 4.3 23.5 0.03 0.52 0.50 97 1005.0
20260506200533 55 198 5.2 23.5 0.04 0.52 0.50 97 1005.0
20260506200047 55 235 6.1 15.6 0.04 0.51 0.49 96 1005.0
20260506195532 54 220 4.3 16.5 0.05 0.51 0.49 96 1005.1
20260506195029 54 248 7.0 16.5 0.05 0.51 0.49 96 1005.2
20260506194551 54 219 5.2 15.6 0.05 0.50 0.48 96 1005.3
20260506194032 54 195 5.2 17.4 0.06 0.50 0.48 96 1005.4
20260506193529 54 263 6.1 17.4 0.07 0.50 0.48 96 1005.3
20260506193050 54 180 5.2 17.4 0.07 0.50 0.48 96 1005.3
20260506192531 54 201 6.1 16.5 0.08 0.50 0.48 96 1005.4
20260506192034 54 165 7.0 15.6 0.07 0.49 0.47 96 1005.5
20260506191544 54 124 4.3 13.9 0.08 0.49 0.47 96 1005.5
20260506191033 54 235 5.2 17.4 0.09 0.49 0.47 96 1005.5
20260506190530 54 167 7.0 17.4 0.09 0.48 0.46 96 1005.6
20260506190044 54 189 6.1 15.6 0.09 0.47 0.45 96 1005.6
20260506185532 54 187 7.0 17.4 0.11 0.46 0.44 96 1005.7
20260506185034 54 204 5.2 17.4 0.12 0.45 0.43 96 1005.7
20260506184545 54 182 6.1 15.6 0.14 0.45 0.43 96 1005.8
20260506184033 54 174 6.1 14.8 0.15 0.44 0.42 96 1005.7
20260506183534 54 192 6.1 14.8 0.15 0.43 0.41 96 1005.6
20260506183041 54 196 7.0 15.6 0.16 0.43 0.41 96 1005.9
20260506182532 54 145 5.2 15.6 0.17 0.42 0.40 96 1005.7
20260506182032 54 111 4.3 13.0 0.18 0.42 0.40 96 1005.8
20260506181559 54 198 4.3 10.4 0.18 0.41 0.39 96 1005.9
20260506181032 54 261 4.3 10.4 0.18 0.40 0.38 96 1006.1
20260506180534 54 152 5.2 13.9 0.18 0.39 0.37 96 1006.3
20260506180049 54 150 4.3 13.9 0.18 0.38 0.36 96 1006.3
20260506175550 54 144 4.3 11.3 0.15 0.34 0.32 96 1006.5
20260506175032 54 155 4.3 11.3 0.15 0.33 0.31 96 1006.4
20260506174545 54 134 3.5 10.4 0.14 0.31 0.29 95 1006.5
20260506174035 54 144 3.5 12.2 0.13 0.29 0.27 95 1006.4
20260506173532 54 130 4.3 12.2 0.14 0.28 0.26 95 1006.6
20260506173059 54 231 5.2 13.9 0.13 0.26 0.24 95 1006.7
20260506172533 54 182 6.1 15.6 0.13 0.25 0.23 95 1006.8
20260506172032 54 150 6.1 15.6 0.13 0.24 0.22 95 1006.9
20260506171551 54 155 5.2 14.8 0.13 0.23 0.21 95 1007.0
20260506171032 54 199 7.8 14.8 0.13 0.22 0.20 95 1007.1
20260506170532 54 142 7.0 14.8 0.12 0.21 0.19 95 1007.1
20260506170045 54 167 5.2 14.8 0.12 0.20 0.18 95 1007.2
20260506165532 54 159 6.1 14.8 0.11 0.19 0.17 95 1007.2
20260506165033 54 182 7.0 13.9 0.11 0.18 0.16 95 1007.3
20260506164545 54 187 5.2 10.4 0.11 0.17 0.15 95 1007.3
20260506164030 54 152 3.5 13.9 0.10 0.16 0.14 95 1007.2
20260506163533 55 211 7.0 13.9 0.08 0.14 0.12 95 1007.2
20260506163043 55 165 6.1 11.3 0.08 0.13 0.11 95 1007.3
20260506162534 55 156 6.1 12.2 0.07 0.12 0.10 94 1007.2
20260506162033 55 134 6.1 13.9 0.07 0.11 0.09 94 1007.3
20260506161549 55 147 6.1 13.9 0.06 0.10 0.08 94 1007.3
20260506161031 55 190 6.1 12.2 0.06 0.09 0.07 94 1007.3
20260506160533 55 84 4.3 13.0 0.05 0.08 0.06 94 1007.3
20260506160058 55 161 4.3 13.9 0.05 0.08 0.06 94 1007.3
20260506155531 55 174 3.5 13.9 0.06 0.08 0.06 94 1007.4
20260506155032 55 166 4.3 13.9 0.05 0.07 0.05 94 1007.5
20260506154548 55 142 4.3 13.9 0.04 0.06 0.04 93 1007.5
20260506154031 55 184 4.3 9.6 0.04 0.06 0.04 93 1007.5
20260506153532 55 250 3.5 9.6 0.04 0.06 0.04 93 1007.7
20260506153046 55 187 4.3 10.4 0.03 0.05 0.03 92 1007.7
20260506152532 55 159 5.2 10.4 0.03 0.05 0.03 92 1007.6
20260506152032 55 238 4.3 14.8 0.02 0.04 0.02 92 1007.8
20260506151546 56 175 2.6 14.8 0.02 0.04 0.02 92 1008.1
20260506151031 56 218 2.6 7.8 0.01 0.03 0.01 91 1008.2
20260506150532 56 201 2.6 8.7 0.01 0.03 0.01 91 1008.1
20260506150049 56 231 4.3 13.0 0.00 0.02 0.00 90 1008.2
20260506145532 56 223 5.2 17.4 0.00 0.02 0.00 89 1008.1
20260506145031 56 199 5.2 17.4 0.00 0.02 0.00 88 1008.5
20260506144548 57 237 5.2 12.2 0.00 0.02 0.00 87 1008.4
20260506144033 57 212 4.3 12.2 0.00 0.02 0.00 85 1008.4
20260506143531 57 219 4.3 12.2 0.00 0.02 0.00 85 1008.5
20260506143044 57 213 5.2 12.2 0.00 0.02 0.00 84 1008.3
20260506142528 57 206 2.6 8.7 0.00 0.02 0.00 84 1008.5
20260506142028 57 219 2.6 9.6 0.00 0.02 0.00 84 1008.4
20260506141543 57 243 3.5 10.4 0.00 0.02 0.00 84 1008.4
20260506141032 57 240 3.5 10.4 0.00 0.02 0.00 84 1008.2
20260506140531 58 195 4.3 10.4 0.00 0.02 0.00 83 1008.1
20260506140039 58 255 5.2 9.6 0.00 0.02 0.00 84 1008.1
20260506135527 58 194 3.5 9.6 0.00 0.02 0.00 84 1008.1
20260506135031 57 170 3.5 9.6 0.00 0.02 0.00 84 1008.1
20260506134548 57 185 2.6 9.6 0.00 0.02 0.00 86 1007.9
20260506134033 57 199 2.6 9.6 0.00 0.02 0.00 86 1007.8
20260506133534 56 155 5.2 14.8 0.00 0.02 0.00 86 1007.9
20260506133045 56 205 5.2 14.8 0.00 0.02 0.00 87 1007.9
20260506132531 56 185 4.3 13.0 0.00 0.02 0.00 87 1008.0
20260506132035 55 205 6.1 13.0 0.00 0.02 0.00 88 1008.1
20260506131557 55 180 4.3 10.4 0.00 0.02 0.00 89 1008.0
20260506131031 55 233 3.5 16.5 0.00 0.02 0.00 89 1008.1
20260506130534 54 240 3.5 16.5 0.00 0.02 0.00 89 1008.2
20260506130053 54 126 4.3 9.6 0.00 0.02 0.00 90 1008.3
20260506125533 54 188 3.5 9.6 0.00 0.02 0.00 91 1008.2
20260506125031 53 143 2.6 7.8 0.00 0.02 0.00 91 1008.5
20260506124546 53 217 2.6 7.8 0.00 0.02 0.00 91 1008.6
20260506124031 52 223 2.6 9.6 0.00 0.02 0.00 91 1008.5
20260506123531 52 197 3.5 9.6 0.00 0.02 0.00 92 1008.6
20260506123041 52 197 2.6 6.1 0.00 0.02 0.00 93 1008.5
20260506122531 51 173 2.6 7.8 0.00 0.02 0.00 93 1008.5
20260506122031 51 165 1.7 8.7 0.00 0.02 0.00 93 1008.6
20260506121545 51 146 2.6 8.7 0.00 0.02 0.00 93 1008.5
20260506121031 51 211 2.6 8.7 0.00 0.02 0.00 93 1008.3
20260506120536 51 158 2.6 8.7 0.00 0.02 0.00 93 1008.5
20260506120044 51 167 3.5 7.0 0.00 0.02 0.00 93 1008.4
20260506115534 51 140 2.6 6.1 0.00 0.02 0.00 93 1008.2
20260506115032 51 86 2.6 7.0 0.00 0.02 0.00 93 1007.8
20260506114543 50 181 1.7 7.0 0.00 0.02 0.00 93 1007.8
20260506114031 50 209 1.7 11.3 0.00 0.02 0.00 93 1008.2
20260506113533 50 196 2.6 11.3 0.00 0.02 0.00 93 1008.3
20260506113043 50 121 4.3 11.3 0.00 0.02 0.00 93 1008.4
20260506112531 50 142 2.6 10.4 0.00 0.02 0.00 93 1008.5
20260506112031 50 154 4.3 12.2 0.00 0.02 0.00 93 1008.5
20260506111543 50 147 4.3 12.2 0.00 0.02 0.00 92 1008.6
20260506111035 50 186 3.5 10.4 0.00 0.02 0.00 92 1008.5
20260506110532 50 132 4.3 10.4 0.00 0.02 0.00 92 1008.4
20260506110047 50 167 4.3 10.4 0.00 0.02 0.00 92 1008.4
20260506105528 50 146 3.5 10.4 0.00 0.02 0.00 92 1008.3
20260506105030 50 159 2.6 10.4 0.00 0.02 0.00 92 1008.3
20260506104549 50 118 3.5 10.4 0.00 0.02 0.00 92 1008.4
20260506104030 50 126 3.5 8.7 0.00 0.02 0.00 91 1008.4
20260506103530 50 126 3.5 8.7 0.00 0.02 0.00 91 1008.2
20260506103045 50 130 3.5 8.7 0.00 0.02 0.00 90 1008.3
20260506102530 51 126 3.5 7.8 0.00 0.02 0.00 90 1008.3
20260506102030 51 178 2.6 7.0 0.00 0.02 0.00 90 1008.2
20260506101546 51 57 2.6 7.8 0.00 0.02 0.00 90 1008.2
20260506101031 52 105 1.7 7.8 0.00 0.02 0.00 90 1008.3
20260506100534 52 127 2.6 7.8 0.00 0.02 0.00 90 1008.2
20260506100044 52 127 4.3 7.8 0.00 0.02 0.00 89 1008.2
20260506095529 52 140 2.6 6.1 0.00 0.02 0.00 89 1008.2
20260506095029 52 140 2.6 6.1 0.00 0.02 0.00 89 1008.1
20260506094556 52 113 2.6 6.1 0.00 0.02 0.00 89 1008.1
20260506094033 53 102 1.7 7.8 0.00 0.02 0.00 89 1008.3
20260506093529 53 175 1.7 7.8 0.00 0.02 0.00 88 1008.4
20260506093046 53 119 2.6 7.8 0.00 0.02 0.00 88 1008.2
20260506092529 53 121 3.5 7.8 0.00 0.02 0.00 88 1008.3
20260506092030 53 121 3.5 7.8 0.00 0.02 0.00 87 1008.3
20260506091548 54 165 2.6 7.8 0.00 0.02 0.00 87 1008.5
20260506091032 54 140 2.6 7.8 0.00 0.02 0.00 86 1008.5
20260506090534 54 119 2.6 8.7 0.00 0.02 0.00 86 1008.4
20260506090044 54 132 1.7 8.7 0.00 0.02 0.00 86 1008.5
20260506085529 54 150 3.5 8.7 0.00 0.02 0.00 86 1008.5
20260506085028 54 215 4.3 7.8 0.00 0.02 0.00 86 1008.5
20260506084545 54 157 3.5 7.8 0.00 0.02 0.00 87 1008.4
20260506084030 54 163 3.5 7.0 0.00 0.02 0.00 88 1008.4
20260506083530 54 200 3.5 8.7 0.00 0.02 0.00 88 1008.5
20260506083042 54 209 3.5 8.7 0.00 0.02 0.00 89 1008.5
20260506082532 54 130 3.5 8.7 0.00 0.02 0.00 89 1008.6
20260506082032 54 171 2.6 7.0 0.00 0.02 0.00 89 1008.7
20260506081544 53 142 2.6 6.1 0.00 0.02 0.00 90 1008.7
20260506081031 53 205 1.7 6.1 0.00 0.02 0.00 91 1008.7
20260506080529 53 207 3.5 6.1 0.00 0.02 0.00 91 1008.8
20260506073047 53 99 2.6 6.1 0.00 0.02 0.00 90 1009.0
20260506072534 54 163 1.7 3.5 0.00 0.02 0.00 90 1009.0
20260506072032 54 0 0.9 4.3 0.00 0.02 0.00 89 1009.0
20260506071547 54 113 0.9 4.3 0.00 0.02 0.00 89 1009.1
20260506071029 54 113 0.9 4.3 0.00 0.02 0.00 89 1009.1
20260506070529 54 0 0.0 0.0 0.00 0.02 0.00 88 1009.2
20260506062029 54 235 1.7 6.1 0.00 0.02 0.00 88 1009.0
20260506061545 55 252 1.7 6.1 0.00 0.02 0.00 88 1008.9
20260506061031 55 254 1.7 5.2 0.00 0.02 0.00 87 1009.0
20260506060531 55 263 1.7 7.0 0.00 0.02 0.00 87 1008.9
20260506051030 57 221 1.7 7.0 0.00 0.02 0.00 82 1009.4
20260506050531 57 221 1.7 7.0 0.00 0.02 0.00 82 1009.4
20260506045031 57 246 1.7 8.7 0.00 0.02 0.00 81 1009.6
20260506044549 57 200 2.6 8.7 0.00 0.02 0.00 81 1009.5
20260506044032 58 236 3.5 9.6 0.00 0.02 0.00 80 1009.4
20260506043530 58 227 3.5 9.6 0.00 0.02 0.00 80 1009.5
20260506043043 58 234 4.3 9.6 0.00 0.02 0.00 80 1009.4
20260506042532 58 236 2.6 12.2 0.00 0.02 0.00 79 1009.3
20260506042031 58 194 2.6 12.2 0.00 0.02 0.00 79 1009.3
20260506041543 58 225 2.6 8.7 0.00 0.02 0.00 78 1009.3
20260506041032 58 189 3.5 8.7 0.00 0.02 0.00 78 1009.5
20260506040532 58 263 2.6 10.4 0.00 0.02 0.00 78 1009.5
20260506040052 58 236 3.5 10.4 0.00 0.02 0.00 77 1009.4
20260506035531 58 233 2.6 8.7 0.00 0.02 0.02 78 1009.5
20260506035032 58 263 3.5 7.8 0.00 0.02 0.02 78 1009.4
20260506034539 58 248 2.6 8.7 0.00 0.02 0.02 78 1009.4
20260506034031 58 221 1.7 8.7 0.00 0.02 0.02 78 1009.5
20260506033530 58 217 3.5 8.7 0.00 0.02 0.02 78 1009.4
20260506033046 58 223 3.5 7.8 0.00 0.02 0.02 78 1009.5
20260506032531 58 246 2.6 10.4 0.00 0.02 0.02 78 1009.5
20260506032036 58 165 2.6 13.0 0.00 0.02 0.02 78 1009.5
20260506031549 58 235 3.5 13.0 0.00 0.02 0.02 78 1009.5
20260506031033 58 277 4.3 10.4 0.00 0.02 0.02 79 1009.5
20260506030531 57 216 4.3 9.6 0.00 0.02 0.02 80 1009.7
20260506030044 57 197 1.7 10.4 0.00 0.02 0.02 82 1009.7
20260506025532 57 188 5.2 10.4 0.00 0.02 0.02 82 1009.7
20260506025033 57 188 3.5 8.7 0.00 0.02 0.02 82 1009.7
20260506024550 57 182 3.5 8.7 0.00 0.02 0.02 81 1009.9
20260506024031 57 142 2.6 8.7 0.00 0.02 0.02 81 1009.7
20260506023532 57 121 3.5 8.7 0.00 0.02 0.02 81 1009.8
20260506023044 58 146 2.6 9.6 0.00 0.02 0.02 80 1009.6
20260506022531 58 123 3.5 9.6 0.00 0.02 0.02 80 1009.5
20260506022031 58 194 4.3 8.7 0.00 0.02 0.02 78 1009.4
20260506021541 58 159 2.6 8.7 0.00 0.02 0.02 79 1009.6
20260506021031 58 194 3.5 9.6 0.00 0.02 0.02 78 1009.7
20260506020530 59 117 3.5 9.6 0.00 0.02 0.02 77 1009.7
20260506020044 59 159 3.5 8.7 0.00 0.02 0.02 76 1009.7
20260506015534 59 166 3.5 12.2 0.00 0.02 0.02 74 1009.7
20260506015032 60 229 5.2 13.9 0.00 0.02 0.02 73 1009.6
20260506014545 60 181 6.1 13.9 0.00 0.02 0.02 71 1009.6
20260506014032 61 213 5.2 15.6 0.01 0.02 0.02 70 1009.7
20260506013534 61 192 3.5 15.6 0.01 0.02 0.02 68 1009.6
20260506013045 61 269 5.2 15.6 0.01 0.02 0.02 66 1009.5